Tiempo cada hora Alipur

Hoy, 27 Julio, Martes

Tiempo Temperatura Precipitaciones Viento Presión Humedad
00:00 +32°C° 0.1 mm 2 mps 729 mmHg 72%
01:00 +32°C° 0.1 mm 2 mps 728 mmHg 72%
02:00 +31°C° 0.1 mm 2 mps 728 mmHg 73%
03:00 +31°C° 0.1 mm 2 mps 728 mmHg 74%
04:00 +31°C° 0.1 mm 2 mps 728 mmHg 74%
05:00 +31°C° 0 mm 2 mps 728 mmHg 76%
06:00 +31°C° 1 mm 2 mps 728 mmHg 74%
07:00 +32°C° 1 mm 2 mps 728 mmHg 72%
08:00 +34°C° 1 mm 2 mps 729 mmHg 70%
09:00 +34°C° 1.5 mm 2 mps 729 mmHg 66%
10:00 +35°C° 1.5 mm 2 mps 728 mmHg 63%
11:00 +36°C° 1.5 mm 2 mps 728 mmHg 60%
12:00 +37°C° 2.5 mm 3 mps 728 mmHg 59%
13:00 +37°C° 2.5 mm 3 mps 728 mmHg 58%
14:00 +37°C° 2.5 mm 3 mps 727 mmHg 57%
15:00 +37°C° 1.9 mm 3 mps 727 mmHg 59%
16:00 +36°C° 1.9 mm 4 mps 727 mmHg 62%
17:00 +36°C° 1.9 mm 4 mps 726 mmHg 65%
18:00 +34°C° 2 mm 4 mps 727 mmHg 70%
19:00 +33°C° 2 mm 5 mps 727 mmHg 76%
20:00 +32°C° 2 mm 5 mps 728 mmHg 81%
21:00 +30°C° 1.1 mm 5 mps 728 mmHg 82%
22:00 +30°C° 1.1 mm 5 mps 728 mmHg 84%
23:00 +29°C° 1.1 mm 5 mps 728 mmHg 85%

Mañana, 28 Julio, Miércoles

Tiempo Temperatura Precipitaciones Viento Presión Humedad
00:00 +29°C° 0.7 mm 4 mps 728 mmHg 85%
01:00 +29°C° 0.7 mm 3 mps 728 mmHg 85%
02:00 +29°C° 0.7 mm 2 mps 727 mmHg 85%
03:00 +29°C° 0.3 mm 2 mps 728 mmHg 85%
04:00 +29°C° 0.3 mm 2 mps 728 mmHg 85%
05:00 +29°C° 0.3 mm 1 mps 728 mmHg 84%
06:00 +29°C° 0.4 mm 1 mps 729 mmHg 84%
07:00 +29°C° 0.4 mm 2 mps 729 mmHg 83%
08:00 +30°C° 0.4 mm 2 mps 730 mmHg 82%
09:00 +29°C° 2 mm 2 mps 730 mmHg 83%
10:00 +29°C° 2 mm 2 mps 730 mmHg 84%
11:00 +29°C° 2 mm 1 mps 730 mmHg 85%
12:00 +30°C° 1 mm 1 mps 730 mmHg 82%
13:00 +30°C° 1 mm 1 mps 729 mmHg 79%
14:00 +31°C° 1 mm 1 mps 729 mmHg 77%
15:00 +31°C° 0.3 mm 1 mps 729 mmHg 75%
16:00 +31°C° 0.3 mm 1 mps 729 mmHg 74%
17:00 +31°C° 0.3 mm 1 mps 729 mmHg 73%
18:00 +31°C° 0.7 mm 1 mps 729 mmHg 75%
19:00 +31°C° 0.7 mm 2 mps 730 mmHg 77%
20:00 +30°C° 0.7 mm 2 mps 730 mmHg 79%
21:00 +30°C° 0.8 mm 2 mps 730 mmHg 79%
22:00 +30°C° 0.8 mm 2 mps 730 mmHg 79%
23:00 +30°C° 0.8 mm 2 mps 730 mmHg 79%

Pasado mañana, 29 Julio, Jueves

Tiempo Temperatura Precipitaciones Viento Presión Humedad
00:00 +30°C° 0.3 mm 2 mps 730 mmHg 79%
01:00 +30°C° 0.3 mm 2 mps 729 mmHg 79%
02:00 +30°C° 0.3 mm 2 mps 729 mmHg 79%
03:00 +30°C° 0.8 mm 1 mps 729 mmHg 80%
04:00 +30°C° 0.8 mm 1 mps 729 mmHg 80%
05:00 +29°C° 0.8 mm 1 mps 729 mmHg 81%
06:00 +30°C° 1.3 mm 2 mps 730 mmHg 80%
07:00 +30°C° 1.3 mm 2 mps 730 mmHg 78%
08:00 +30°C° 1.3 mm 2 mps 730 mmHg 77%
09:00 +30°C° 0.7 mm 2 mps 731 mmHg 76%
10:00 +31°C° 0.7 mm 3 mps 731 mmHg 76%
11:00 +31°C° 0.7 mm 3 mps 731 mmHg 75%
12:00 +31°C° 0 mm 3 mps 730 mmHg 74%
13:00 +31°C° 0 mm 3 mps 730 mmHg 72%
14:00 +33°C° 0 mm 3 mps 730 mmHg 70%
15:00 +33°C° 0 mm 3 mps 729 mmHg 71%
16:00 +32°C° 0 mm 2 mps 729 mmHg 71%
17:00 +32°C° 0 mm 2 mps 729 mmHg 71%
18:00 +31°C° 0.2 mm 1 mps 729 mmHg 73%
19:00 +31°C° 0.2 mm 1 mps 730 mmHg 74%
20:00 +29°C° 0.2 mm 0 mps 730 mmHg 76%
21:00 +28°C° 0.1 mm 0 mps 730 mmHg 76%
22:00 +28°C° 0.1 mm 0 mps 730 mmHg 77%
23:00 +28°C° 0.1 mm 0 mps 730 mmHg 77%

30 Julio, Viernes

Tiempo Temperatura Precipitaciones Viento Presión Humedad
00:00 +28°C° 0.5 mm 0 mps 730 mmHg 78%
01:00 +30°C° 0.5 mm 1 mps 730 mmHg 78%
02:00 +30°C° 0.5 mm 1 mps 729 mmHg 79%
03:00 +30°C° 0.9 mm 1 mps 729 mmHg 81%
04:00 +29°C° 0.9 mm 2 mps 729 mmHg 82%
05:00 +29°C° 0.9 mm 2 mps 729 mmHg 84%
06:00 +30°C° 1 mm 2 mps 730 mmHg 80%
07:00 +31°C° 1 mm 3 mps 730 mmHg 76%
08:00 +33°C° 1 mm 3 mps 730 mmHg 73%
09:00 +33°C° 1.7 mm 3 mps 731 mmHg 71%
10:00 +34°C° 1.7 mm 3 mps 731 mmHg 69%
11:00 +34°C° 1.7 mm 3 mps 731 mmHg 66%
12:00 +34°C° 1.8 mm 3 mps 730 mmHg 68%
13:00 +34°C° 1.8 mm 3 mps 730 mmHg 69%
14:00 +34°C° 1.8 mm 2 mps 730 mmHg 70%
15:00 +32°C° 2.6 mm 2 mps 729 mmHg 74%
16:00 +31°C° 2.6 mm 2 mps 729 mmHg 79%
17:00 +30°C° 2.6 mm 2 mps 729 mmHg 83%
18:00 +30°C° 3.1 mm 1 mps 730 mmHg 84%
19:00 +30°C° 3.1 mm 1 mps 730 mmHg 86%
20:00 +29°C° 3.1 mm 1 mps 730 mmHg 87%
21:00 +29°C° 1.1 mm 1 mps 730 mmHg 87%
22:00 +29°C° 1.1 mm 1 mps 731 mmHg 86%
23:00 +29°C° 1.1 mm 2 mps 731 mmHg 86%

31 Julio, Sábado

Tiempo Temperatura Precipitaciones Viento Presión Humedad
00:00 +29°C° 1.6 mm 1 mps 730 mmHg 87%
01:00 +29°C° 1.6 mm 1 mps 730 mmHg 88%
02:00 +29°C° 1.6 mm 1 mps 730 mmHg 89%
03:00 +29°C° 1 mm 1 mps 730 mmHg 88%
04:00 +29°C° 1 mm 1 mps 730 mmHg 87%
05:00 +29°C° 1 mm 1 mps 730 mmHg 86%
06:00 +29°C° 0.6 mm 2 mps 730 mmHg 85%
07:00 +30°C° 0.6 mm 2 mps 731 mmHg 84%
08:00 +30°C° 0.6 mm 2 mps 731 mmHg 82%
09:00 +30°C° 0.3 mm 2 mps 731 mmHg 80%
10:00 +31°C° 0.3 mm 3 mps 731 mmHg 78%
11:00 +31°C° 0.3 mm 3 mps 731 mmHg 76%
12:00 +31°C° 0.7 mm 3 mps 731 mmHg 74%
13:00 +32°C° 0.7 mm 2 mps 730 mmHg 73%
14:00 +32°C° 0.7 mm 2 mps 730 mmHg 71%
15:00 +32°C° 1.1 mm 2 mps 730 mmHg 72%
16:00 +32°C° 1.1 mm 2 mps 730 mmHg 73%
17:00 +32°C° 1.1 mm 2 mps 730 mmHg 74%
18:00 +32°C° 1 mm 2 mps 730 mmHg 76%
19:00 +31°C° 1 mm 1 mps 730 mmHg 78%
20:00 +31°C° 1 mm 1 mps 731 mmHg 80%
21:00 +31°C° 1.1 mm 1 mps 731 mmHg 81%
22:00 +30°C° 1.1 mm 1 mps 731 mmHg 82%
23:00 +30°C° 1.1 mm 1 mps 731 mmHg 83%

1 Agosto, Domingo

Tiempo Temperatura Precipitaciones Viento Presión Humedad
00:00 +30°C° 0.9 mm 1 mps 730 mmHg 84%
01:00 +30°C° 0.9 mm 1 mps 730 mmHg 85%
02:00 +29°C° 0.9 mm 1 mps 730 mmHg 86%
03:00 +29°C° 0.9 mm 1 mps 730 mmHg 86%
04:00 +29°C° 0.9 mm 1 mps 730 mmHg 87%
05:00 +29°C° 0.9 mm 2 mps 730 mmHg 87%
06:00 +29°C° 1.5 mm 2 mps 730 mmHg 85%
07:00 +30°C° 1.5 mm 2 mps 730 mmHg 83%
08:00 +30°C° 1.5 mm 2 mps 731 mmHg 81%
09:00 +31°C° 2.4 mm 2 mps 731 mmHg 79%
10:00 +31°C° 2.4 mm 2 mps 730 mmHg 78%
11:00 +31°C° 2.4 mm 2 mps 730 mmHg 76%
12:00 +32°C° 0.2 mm 2 mps 730 mmHg 73%
13:00 +34°C° 0.2 mm 2 mps 730 mmHg 69%
14:00 +33°C° 0.2 mm 1 mps 729 mmHg 66%
15:00 +33°C° 0 mm 1 mps 729 mmHg 65%
16:00 +35°C° 0 mm 2 mps 729 mmHg 64%
17:00 +35°C° 0 mm 2 mps 729 mmHg 63%
18:00 +33°C° 0.1 mm 1 mps 729 mmHg 65%
19:00 +32°C° 0.1 mm 1 mps 729 mmHg 68%
20:00 +32°C° 0.1 mm 1 mps 729 mmHg 70%
21:00 +31°C° 0.5 mm 1 mps 729 mmHg 73%
22:00 +31°C° 0.5 mm 1 mps 730 mmHg 76%
23:00 +31°C° 0.5 mm 1 mps 730 mmHg 78%
Mostrar más

Necesitamos Su Consentimiento

Meteoprog y nuestros Proveedores de Servicios pueden almacenar y acceder a sus datos personales como cookies, identificadores de dispositivo u otras tecnologías similares de su dispositivo y procesar dichos datos para personalizar contenido y anuncios, además de ofrecer funciones de redes sociales y analizar el tráfico.

  • Almacenar y/o acceder a información en su dispositivo

    Se puede almacenar o acceder a cookies, identificadores de dispositivo u otra información de su dispositivo para los fines anteriormente indicados.

  • Anuncios y contenido personalizados, medición de anuncios y contenido, percepciones del público, y desarrollo de productos

    Los anuncios y el contenido pueden personalizarse en base a su perfil. Se pueden añadir más datos para personalizar mejor los anuncios y contenidos. Se puede medir el rendimiento de los anuncios y contenidos. Se puede obtener la percepción sobre el público que ha visto los anuncios y contenidos. Dichos datos pueden usarse para desarrollar o mejorar la experiencia del usuario, sistemas y software.

Al hacer clic en ‘Estoy De Acuerdo’ usted permitirá el uso de las cookies, identificadores de dispositivo, balizas web u otras tecnologías similares indicadas. Su configuración puede cambiarse desde el navegador de su dispositivo.

Para ciertos fines, los intereses legítimos pueden ser considerados por encima del consentimiento. Puede leer más sobre ello en nuestra Política de Privacidad y Cookies.